Patrick AFB, FL

4:09 AM EST on December 06, 2016 (GMT -0500)
Patrick Air Force Base

Weather History for KCOF - January, 2014

Change the Weather History Date:

Friday, January 24, 2014

  Actual Average Record
Temperature  
Mean Temperature 53 °F -  
Max Temperature 58 °F 67 °F 80 °F (2002)
Min Temperature 48 °F 53 °F 33 °F (2003)
Degree Days  
Heating Degree Days 12    
Growing Degree Days 3 (Base 50)    
Moisture  
Dew Point 41 °F    
Average Humidity 66    
Maximum Humidity 83    
Minimum Humidity 50    
Precipitation  
Precipitation 0.00 in - - ()
Sea Level Pressure  
Sea Level Pressure 30.37 in    
Wind  
Wind Speed 15 mph (NNW)    
Max Wind Speed 20 mph    
Max Gust Speed 25 mph    
Visibility 10 miles    
Events      
Averages and records for this station are not official NWS values.
T = Trace of Precipitation, MM = Missing Value Source: NWS Daily Summary

Daily Weather History Graph

Daily Weather History Graph

Search for Another Location

Airport or City:

Trip Planner

Search our weather history database for the weather conditions in past years. The results will help you decide how hot, cold, wet, or windy it might be!

Date:

Astronomy

Jan. 24, 2014 Rise Set
Actual Time 7:13 AM EST 5:55 PM EST
Civil Twilight 6:48 AM EST 6:20 PM EST
Nautical Twilight 6:19 AM EST 6:49 PM EST
Astronomical Twilight 5:51 AM EST 7:17 PM EST
Moon 12:46 AM EST (1/24) 12:08 PM EST (1/24)
Length of Visible Light 11h 32m
Length of Day
10h 42m
Last Quarter, 45% of the Moon is Illuminated
Jan 24
Last Quarter
Jan 30
New
Feb 6
First Quarter
Feb 14
Full
Feb 22
Last Quarter

Hourly Weather History & Observations

Time (EST) Temp. Dew Point Humidity Pressure Visibility Wind Dir Wind Speed Gust Speed Precip Events Conditions
12:58 AM 52.2 °F 43.5 °F 72% 30.37 in 10.0 mi NNW 12.7 mph - N/A   Clear
1:58 AM 51.4 °F 40.8 °F 67% 30.37 in 10.0 mi NNW 12.7 mph - N/A   Clear
2:58 AM 50.4 °F 37.2 °F 61% 30.35 in 10.0 mi NW 12.7 mph - N/A   Clear
3:58 AM 51.1 °F 38.5 °F 62% 30.35 in 10.0 mi NNW 12.7 mph - N/A   Clear
4:58 AM 50.2 °F 38.7 °F 65% 30.37 in 10.0 mi NNW 18.4 mph 20.7 mph N/A   Clear
5:58 AM 49.5 °F 36.3 °F 61% 30.40 in 10.0 mi NW 19.6 mph - N/A   Clear
6:58 AM 48.7 °F 34.9 °F 59% 30.43 in 10.0 mi NNW 18.4 mph 25.3 mph N/A   Clear
7:58 AM 49.3 °F 36.7 °F 62% 30.45 in 10.0 mi NNW 16.1 mph 25.3 mph N/A   Partly Cloudy
8:58 AM 50.0 °F 36.9 °F 61% 30.47 in 10.0 mi NNW 18.4 mph 24.2 mph N/A   Clear
9:58 AM 53.2 °F 38.1 °F 57% 30.48 in 10.0 mi NW 16.1 mph - N/A   Clear
10:58 AM 58.3 °F 39.6 °F 50% 30.47 in 10.0 mi North 15.0 mph 19.6 mph N/A   Clear
11:58 AM 57.7 °F 41.0 °F 54% 30.44 in 10.0 mi NNW 17.3 mph - N/A   Clear
12:58 PM 57.6 °F 41.4 °F 55% 30.40 in 10.0 mi North 15.0 mph - N/A   Clear
1:58 PM 58.6 °F 42.3 °F 55% 30.35 in 10.0 mi NNW 17.3 mph - N/A   Partly Cloudy
2:58 PM 57.9 °F 42.8 °F 57% 30.35 in 10.0 mi North 18.4 mph 25.3 mph N/A   Clear
3:58 PM 57.4 °F 43.2 °F 59% 30.34 in 10.0 mi North 17.3 mph 21.9 mph N/A   Clear
4:58 PM 55.2 °F 44.2 °F 67% 30.35 in 10.0 mi North 17.3 mph - N/A   Scattered Clouds
5:58 PM 53.6 °F 44.8 °F 72% 30.34 in 10.0 mi NNW 13.8 mph - N/A   Clear
6:28 PM 53.6 °F 44.6 °F 72% 30.32 in 10.0 mi NNW 12.7 mph - N/A   Mostly Cloudy
6:48 PM 53.6 °F 44.6 °F 72% 30.32 in 10.0 mi NW 15.0 mph - N/A   Scattered Clouds
6:58 PM 53.4 °F 45.3 °F 74% 30.34 in 10.0 mi NNW 13.8 mph - N/A   Scattered Clouds
7:58 PM 52.9 °F 45.0 °F 74% 30.35 in 10.0 mi NNW 12.7 mph - N/A   Clear
8:58 PM 52.2 °F 45.3 °F 78% 30.32 in 10.0 mi NW 9.2 mph - N/A   Clear
9:58 PM 50.5 °F 45.3 °F 82% 30.32 in 10.0 mi NW 10.4 mph - N/A   Clear
10:58 PM 48.6 °F 43.2 °F 82% 30.31 in 10.0 mi NW 11.5 mph - N/A   Scattered Clouds
11:58 PM 48.9 °F 44.1 °F 83% 30.29 in 10.0 mi NW 6.9 mph - N/A   Scattered Clouds